Location: Pine Mountain Observatory
(43.7910°N, 120.9377°W)
Time: 07:56:20
(UTC-07:00)

deb Explorer IX - Visible Passes

Search period start: 26 May 2019 00:00
Search period end: 05 June 2019 00:00
Orbit: 538 x 1114 km, 38.8° (Epoch: 25 May)

Date Brightness Start Highest point End Pass type
(mag) Time Alt. Az. Time Alt. Az. Time Alt. Az.
26 May ? 02:52:36 29° SE 02:52:36 29° SE 02:55:19 10° ESE visible
26 May ? 04:34:11 10° WSW 04:37:59 40° S 04:42:02 10° ESE visible
27 May ? 02:31:54 22° ESE 02:31:54 22° ESE 02:33:42 10° ESE visible
27 May ? 04:13:17 14° WSW 04:16:23 39° S 04:20:19 10° ESE visible
28 May ? 02:11:17 15° ESE 02:11:17 15° ESE 02:12:05 10° ESE visible
28 May ? 03:52:40 22° WSW 03:54:47 39° S 03:58:38 10° ESE visible
29 May ? 03:32:08 32° SW 03:33:10 38° S 03:36:59 10° ESE visible
30 May ? 03:11:47 38° S 03:11:47 38° S 03:15:20 10° ESE visible
31 May ? 02:51:39 25° SE 02:51:39 25° SE 02:53:43 10° ESE visible
31 May ? 04:33:21 10° WSW 04:36:10 18° SSW 04:39:00 10° SSE visible
01 Jun ? 02:31:53 11° ESE 02:31:53 11° ESE 02:32:06 10° ESE visible
01 Jun ? 04:13:21 16° SW 04:14:31 18° SSW 04:17:17 10° SSE visible
01 Jun ? 22:30:01 10° SSW 22:32:13 18° S 22:32:13 18° S visible
02 Jun ? 03:54:03 16° S 03:54:03 16° S 03:55:35 10° SSE visible
02 Jun ? 22:08:03 10° SSW 22:12:10 23° SSE 22:13:25 20° SE visible
02 Jun ? 23:54:01 10° WSW 23:54:55 15° WSW 23:54:55 15° WSW visible
03 Jun ? 21:46:06 10° SSW 21:50:29 24° SSE 21:54:05 11° ESE visible
03 Jun ? 23:32:10 10° WSW 23:35:33 33° SW 23:35:33 33° SW visible
04 Jun ? 21:24:08 10° SSW 21:28:46 25° SSE 21:32:52 10° ESE visible
04 Jun ? 23:10:19 10° WSW 23:15:18 44° S 23:15:43 43° SSE visible
